| time (UTC) | temp F | wind direction | speed MPH | gust MPH | rain 1hr in | rain 24hr in | rain mn in | humidity % | barometer mb |
| 20260510130028 | 67 | 49 | 0.0 | 7.0 | 0.00 | 0.00 | 0.00 | 44 | 1005.4 |
| 20260510124527 | 67 | 178 | 2.0 | 9.0 | 0.00 | 0.00 | 0.00 | 44 | 1005.3 |
| 20260510123026 | 67 | 317 | 1.0 | 15.0 | 0.00 | 0.00 | 0.00 | 43 | 1005.4 |
| 20260510121526 | 68 | 105 | 1.0 | 7.0 | 0.00 | 0.00 | 0.00 | 43 | 1005.3 |
| 20260510120025 | 69 | 111 | 1.0 | 4.0 | 0.00 | 0.00 | 0.00 | 44 | 1005.4 |
| 20260510114524 | 68 | 50 | 0.0 | 5.0 | 0.00 | 0.00 | 0.00 | 45 | 1005.4 |
| 20260510113028 | 67 | 24 | 2.0 | 11.0 | 0.00 | 0.00 | 0.00 | 44 | 1005.4 |
| 20260510111518 | 66 | 116 | 0.0 | 10.0 | 0.00 | 0.00 | 0.00 | 46 | 1005.8 |
| 20260510110030 | 67 | 132 | 0.0 | 12.0 | 0.00 | 0.00 | 0.00 | 48 | 1006.0 |
| 20260510104516 | 67 | 251 | 1.0 | 11.0 | 0.00 | 0.00 | 0.00 | 45 | 1005.9 |
| 20260510103015 | 67 | 65 | 2.0 | 11.0 | 0.00 | 0.00 | 0.00 | 44 | 1006.1 |
| 20260510101513 | 67 | 331 | 2.0 | 11.0 | 0.00 | 0.00 | 0.00 | 43 | 1006.2 |
| 20260510100012 | 67 | 67 | 2.0 | 8.0 | 0.00 | 0.00 | 0.00 | 43 | 1006.3 |
| 20260510094508 | 67 | 265 | 1.0 | 10.0 | 0.00 | 0.00 | 0.00 | 44 | 1006.5 |
| 20260510093005 | 67 | 71 | 1.0 | 11.0 | 0.00 | 0.00 | 0.00 | 43 | 1006.6 |
| 20260510091501 | 66 | 28 | 2.0 | 9.0 | 0.00 | 0.00 | 0.00 | 43 | 1006.7 |
| 20260510090101 | 66 | 148 | 1.0 | 5.0 | 0.00 | 0.00 | 0.00 | 44 | 1006.7 |
| 20260510084613 | 66 | 128 | 1.0 | 10.0 | 0.00 | 0.00 | 0.00 | 45 | 1007.0 |
| 20260510083058 | 66 | 78 | 0.0 | 1.0 | 0.00 | 0.00 | 0.00 | 46 | 1007.2 |
| 20260510081559 | 64 | 179 | 0.0 | 6.0 | 0.00 | 0.00 | 0.00 | 45 | 1007.4 |
| 20260510080104 | 64 | 257 | 0.0 | 1.0 | 0.00 | 0.00 | 0.00 | 46 | 1007.7 |
| 20260510074553 | 62 | 213 | 0.0 | 2.0 | 0.00 | 0.00 | 0.00 | 48 | 1007.7 |
| 20260510073053 | 62 | 263 | 0.0 | 0.0 | 0.00 | 0.00 | 0.00 | 50 | 1007.8 |
| 20260510071549 | 61 | 263 | 0.0 | 0.0 | 0.00 | 0.00 | 0.00 | 54 | 1008.1 |
| 20260510070051 | 60 | 267 | 0.0 | 0.0 | 0.00 | 0.00 | 0.00 | 54 | 1008.3 |
| 20260510064546 | 59 | 267 | 0.0 | 0.0 | 0.00 | 0.00 | 0.00 | 60 | 1008.3 |
| 20260510063038 | 59 | 268 | 0.0 | 0.0 | 0.00 | 0.00 | 0.00 | 59 | 1008.5 |
| 20260510061533 | 58 | 268 | 0.0 | 0.0 | 0.00 | 0.00 | 0.00 | 60 | 1008.6 |
| 20260510060038 | 58 | 268 | 0.0 | 0.0 | 0.00 | 0.00 | 0.00 | 59 | 1008.6 |
| 20260510054529 | 58 | 268 | 0.0 | 0.0 | 0.00 | 0.00 | 0.00 | 59 | 1008.6 |
| 20260510053027 | 59 | 268 | 0.0 | 0.0 | 0.00 | 0.00 | 0.00 | 56 | 1008.5 |
| 20260510051527 | 59 | 268 | 0.0 | 1.0 | 0.00 | 0.00 | 0.00 | 56 | 1008.6 |
| 20260510050026 | 59 | 268 | 0.0 | 0.0 | 0.00 | 0.00 | 0.00 | 51 | 1008.6 |
| 20260510044525 | 58 | 268 | 0.0 | 0.0 | 0.00 | 0.00 | 0.00 | 56 | 1008.7 |
| 20260510043021 | 58 | 268 | 0.0 | 0.0 | 0.00 | 0.00 | 0.00 | 55 | 1008.6 |
| 20260510041522 | 60 | 268 | 0.0 | 1.0 | 0.00 | 0.00 | 0.00 | 47 | 1008.8 |
| 20260510040016 | 61 | 268 | 1.0 | 3.0 | 0.00 | 0.00 | 0.00 | 41 | 1008.6 |
| 20260510034513 | 61 | 360 | 0.0 | 0.0 | 0.00 | 0.00 | 0.00 | 42 | 1008.7 |
| 20260510033010 | 61 | 5 | 0.0 | 4.0 | 0.00 | 0.00 | 0.00 | 41 | 1008.7 |
| 20260510031511 | 61 | 350 | 0.0 | 2.0 | 0.00 | 0.00 | 0.00 | 40 | 1008.7 |
| 20260510030008 | 62 | 69 | 0.0 | 0.0 | 0.00 | 0.00 | 0.00 | 40 | 1008.9 |
| 20260510024507 | 62 | 355 | 0.0 | 3.0 | 0.00 | 0.00 | 0.00 | 40 | 1008.8 |
| 20260510023005 | 62 | 311 | 0.0 | 6.0 | 0.00 | 0.00 | 0.00 | 40 | 1009.0 |
| 20260510021652 | 62 | 336 | 0.0 | 5.0 | 0.00 | 0.00 | 0.00 | 40 | 1009.1 |
| 20260510020003 | 62 | 347 | 0.0 | 4.0 | 0.00 | 0.00 | 0.00 | 40 | 1009.2 |
| 20260510014507 | 62 | 65 | 0.0 | 6.0 | 0.00 | 0.00 | 0.00 | 40 | 1009.4 |
| 20260510013005 | 63 | 65 | 0.0 | 10.0 | 0.00 | 0.00 | 0.00 | 40 | 1009.3 |
| 20260510011502 | 63 | 355 | 1.0 | 8.0 | 0.00 | 0.00 | 0.00 | 40 | 1009.1 |
| 20260510010003 | 63 | 360 | 0.0 | 8.0 | 0.00 | 0.00 | 0.00 | 41 | 1009.2 |
| 20260510004558 | 63 | 101 | 1.0 | 4.0 | 0.00 | 0.00 | 0.00 | 39 | 1009.2 |
| 20260510003105 | 64 | 57 | 0.0 | 3.0 | 0.00 | 0.00 | 0.00 | 39 | 1009.2 |
| 20260510001601 | 64 | 65 | 0.0 | 4.0 | 0.00 | 0.00 | 0.00 | 39 | 1009.2 |
| 20260510000054 | 65 | 107 | 0.0 | 8.0 | 0.00 | 0.00 | 0.00 | 37 | 1009.2 |
| 20260509234553 | 65 | 149 | 0.0 | 7.0 | 0.00 | 0.00 | 0.00 | 38 | 1009.5 |
| 20260509233052 | 65 | 300 | 0.0 | 6.0 | 0.00 | 0.00 | 0.00 | 39 | 1009.4 |
| 20260509231552 | 65 | 86 | 0.0 | 7.0 | 0.00 | 0.00 | 0.00 | 39 | 1009.6 |
| 20260509230052 | 65 | 119 | 0.0 | 5.0 | 0.00 | 0.00 | 0.00 | 39 | 1009.5 |
| 20260509224547 | 66 | 298 | 1.0 | 9.0 | 0.00 | 0.00 | 0.00 | 39 | 1009.4 |
| 20260509223051 | 66 | 94 | 0.0 | 4.0 | 0.00 | 0.00 | 0.00 | 39 | 1009.4 |
| 20260509221548 | 66 | 92 | 1.0 | 10.0 | 0.00 | 0.00 | 0.00 | 39 | 1009.5 |
| 20260509220048 | 66 | 348 | 1.0 | 12.0 | 0.00 | 0.00 | 0.00 | 40 | 1009.3 |
| 20260509214546 | 66 | 82 | 0.0 | 3.0 | 0.00 | 0.00 | 0.00 | 39 | 1009.4 |
| 20260509213055 | 67 | 113 | 0.0 | 4.0 | 0.00 | 0.00 | 0.00 | 39 | 1009.4 |
| 20260509211543 | 67 | 122 | 1.0 | 5.0 | 0.00 | 0.00 | 0.00 | 38 | 1009.2 |
| 20260509210048 | 68 | 257 | 0.0 | 9.0 | 0.00 | 0.00 | 0.00 | 38 | 1009.1 |
| 20260509204542 | 68 | 15 | 1.0 | 8.0 | 0.00 | 0.00 | 0.00 | 38 | 1009.1 |
| 20260509203042 | 68 | 5 | 0.0 | 6.0 | 0.00 | 0.00 | 0.00 | 39 | 1009.0 |
| 20260509201542 | 68 | 96 | 2.0 | 13.0 | 0.00 | 0.00 | 0.00 | 39 | 1008.9 |
| 20260509200050 | 69 | 323 | 2.0 | 10.0 | 0.00 | 0.00 | 0.00 | 38 | 1008.7 |
| 20260509194553 | 69 | 267 | 2.0 | 11.0 | 0.00 | 0.00 | 0.00 | 38 | 1008.6 |
| 20260509193043 | 69 | 126 | 2.0 | 21.0 | 0.00 | 0.00 | 0.00 | 37 | 1008.6 |
| 20260509191540 | 70 | 111 | 3.0 | 11.0 | 0.00 | 0.00 | 0.00 | 37 | 1008.4 |
| 20260509190041 | 70 | 161 | 1.0 | 6.0 | 0.00 | 0.00 | 0.00 | 37 | 1008.4 |
| 20260509184538 | 70 | 75 | 2.0 | 13.0 | 0.00 | 0.00 | 0.00 | 36 | 1008.4 |
| 20260509183038 | 71 | 110 | 2.0 | 10.0 | 0.00 | 0.00 | 0.00 | 36 | 1008.3 |
| 20260509181538 | 71 | 110 | 2.0 | 11.0 | 0.00 | 0.00 | 0.00 | 36 | 1008.0 |
| 20260509180050 | 72 | 238 | 2.0 | 11.0 | 0.00 | 0.00 | 0.00 | 35 | 1007.8 |
| 20260509174539 | 72 | 13 | 2.0 | 11.0 | 0.00 | 0.00 | 0.00 | 34 | 1007.8 |
| 20260509173052 | 73 | 15 | 1.0 | 16.0 | 0.00 | 0.00 | 0.00 | 34 | 1007.4 |
| 20260509171540 | 73 | 95 | 3.0 | 14.0 | 0.00 | 0.00 | 0.00 | 33 | 1007.6 |
| 20260509170036 | 73 | 86 | 1.0 | 11.0 | 0.00 | 0.00 | 0.00 | 32 | 1007.3 |
| 20260509164535 | 73 | 82 | 1.0 | 10.0 | 0.00 | 0.00 | 0.00 | 32 | 1007.3 |
| 20260509163036 | 75 | 126 | 1.0 | 16.0 | 0.00 | 0.00 | 0.00 | 31 | 1007.3 |
| 20260509161541 | 75 | 300 | 0.0 | 8.0 | 0.00 | 0.00 | 0.00 | 31 | 1007.6 |
| 20260509160036 | 75 | 64 | 0.0 | 6.0 | 0.00 | 0.00 | 0.00 | 31 | 1007.6 |
| 20260509154538 | 75 | 205 | 0.0 | 4.0 | 0.00 | 0.00 | 0.00 | 32 | 1007.6 |
| 20260509153050 | 76 | 115 | 3.0 | 9.0 | 0.00 | 0.00 | 0.00 | 30 | 1007.6 |
| 20260509151530 | 78 | 126 | 4.0 | 16.0 | 0.00 | 0.00 | 0.00 | 29 | 1007.5 |
| 20260509150032 | 77 | 172 | 2.0 | 12.0 | 0.00 | 0.00 | 0.00 | 29 | 1007.6 |
| 20260509144529 | 77 | 127 | 4.0 | 16.0 | 0.00 | 0.00 | 0.00 | 29 | 1007.6 |
| 20260509143029 | 77 | 138 | 2.0 | 12.0 | 0.00 | 0.00 | 0.00 | 28 | 1007.7 |
| 20260509141535 | 78 | 101 | 2.0 | 12.0 | 0.00 | 0.00 | 0.00 | 28 | 1007.9 |
| 20260509140026 | 77 | 107 | 3.0 | 12.0 | 0.00 | 0.00 | 0.00 | 30 | 1007.9 |
| 20260509134524 | 77 | 129 | 3.0 | 11.0 | 0.00 | 0.00 | 0.00 | 29 | 1008.1 |
| 20260509133025 | 77 | 88 | 3.0 | 10.0 | 0.00 | 0.00 | 0.00 | 32 | 1008.2 |
| 20260509131523 | 78 | 128 | 0.0 | 10.0 | 0.00 | 0.00 | 0.00 | 31 | 1008.6 |